Dillon, MT

5:54 AM MST on January 16, 2017 (GMT -0700)
Dillon

Weather History for KDLN - October, 2012

Change the Weather History Date:

Sunday, October 28, 2012

  Actual Average Record
Temperature  
Mean Temperature 46 °F 39 °F  
Max Temperature 58 °F 52 °F 74 °F (1987)
Min Temperature 34 °F 27 °F 1 °F (1991)
Degree Days  
Heating Degree Days 19    
Month to date heating degree days 644  
Since 1 July heating degree days 824  
Cooling Degree Days 0    
Month to date cooling degree days 0  
Year to date cooling degree days 242  
Moisture  
Dew Point 35 °F    
Average Humidity 66    
Maximum Humidity 92    
Minimum Humidity 39    
Precipitation  
Precipitation 0.04 in 0.02 in 0.55 in (2004)
Month to date precipitation 0.64 0.70  
Year to date precipitation 5.81 9.87  
Snow  
Snow 0.00 in - - ()
Snow Depth 0.00 in    
Sea Level Pressure  
Sea Level Pressure 29.94 in    
Wind  
Wind Speed 15 mph (SSW)    
Max Wind Speed 30 mph    
Max Gust Speed 36 mph    
Visibility 10 miles    
Events      
T = Trace of Precipitation, MM = Missing Value Source: NWS Daily Summary

Daily Weather History Graph

Daily Weather History Graph

Search for Another Location

Airport or City:

Trip Planner

Search our weather history database for the weather conditions in past years. The results will help you decide how hot, cold, wet, or windy it might be!

Date:

Astronomy

Oct. 28, 2012 Rise Set
Actual Time 8:04 AM MDT 6:22 PM MDT
Civil Twilight 7:33 AM MDT 6:53 PM MDT
Nautical Twilight 6:59 AM MDT 7:27 PM MDT
Astronomical Twilight 6:25 AM MDT 8:02 PM MDT
Moon 5:42 PM MDT (10/28) 7:00 AM MDT (10/28)
Length of Visible Light 11h 19m
Length of Day
10h 18m
Waxing Gibbous, 99% of the Moon is Illuminated
Oct 28
Waxing Gibbous
Oct 29
Full
Nov 6
Last Quarter
Nov 13
New
Nov 20
First Quarter

Hourly Weather History & Observations

Time (MDT) Temp. Windchill Dew Point Humidity Pressure Visibility Wind Dir Wind Speed Gust Speed Precip Events Conditions
12:53 AM 35.1 °F 28.6 °F 28.9 °F 78% 30.00 in 10.0 mi South 8.1 mph - N/A   Overcast
1:53 AM 35.1 °F 27.9 °F 30.0 °F 82% 29.97 in 10.0 mi South 9.2 mph - N/A   Mostly Cloudy
2:53 AM 37.0 °F 28.9 °F 30.0 °F 76% 29.97 in 10.0 mi SW 12.7 mph - N/A   Overcast
3:53 AM 37.0 °F 27.7 °F 32.0 °F 82% 29.98 in 10.0 mi SW 16.1 mph - 0.01 in   Overcast
4:53 AM 36.0 °F 30.3 °F 34.0 °F 93% 29.97 in 10.0 mi SSW 6.9 mph - 0.03 in   Overcast
5:53 AM 37.9 °F 30.9 °F 34.0 °F 86% 29.99 in 10.0 mi SSW 10.4 mph - N/A   Overcast
6:53 AM 42.1 °F 35.7 °F 35.1 °F 76% 29.96 in 10.0 mi South 11.5 mph - N/A   Overcast
7:53 AM 46.0 °F 39.9 °F 35.1 °F 66% 29.95 in 10.0 mi South 13.8 mph - N/A   Overcast
8:53 AM 46.0 °F 39.3 °F 36.0 °F 68% 29.95 in 10.0 mi SSW 16.1 mph - N/A   Overcast
9:53 AM 48.0 °F - 36.0 °F 63% 29.94 in 10.0 mi SSW 21.9 mph - N/A   Partly Cloudy
11:53 AM 52.0 °F - 37.0 °F 57% 29.92 in 10.0 mi SSW 21.9 mph 28.8 mph N/A   Clear
12:53 PM 54.0 °F - 37.0 °F 53% 29.91 in 10.0 mi SSW 21.9 mph 31.1 mph N/A   Partly Cloudy
1:53 PM 55.9 °F - 35.1 °F 45% 29.89 in 10.0 mi WSW 15.0 mph - N/A   Scattered Clouds
2:53 PM 55.9 °F - 33.1 °F 42% 29.89 in 10.0 mi WSW 20.7 mph 27.6 mph N/A   Clear
3:53 PM 57.0 °F - 32.0 °F 39% 29.91 in 10.0 mi WSW 21.9 mph 31.1 mph N/A   Scattered Clouds
4:53 PM 54.0 °F - 32.0 °F 43% 29.92 in 10.0 mi WSW 17.3 mph - N/A   Clear
5:53 PM 53.1 °F - 35.1 °F 50% 29.92 in 10.0 mi WSW 16.1 mph - N/A   Mostly Cloudy
6:53 PM 51.1 °F - 36.0 °F 56% 29.94 in 10.0 mi SW 13.8 mph - N/A   Overcast
7:53 PM 48.9 °F - 37.0 °F 64% 29.93 in 10.0 mi SW 18.4 mph 24.2 mph N/A   Mostly Cloudy
8:53 PM 46.9 °F - 37.9 °F 71% 29.94 in 10.0 mi SW 15.0 mph - N/A   Mostly Cloudy
9:53 PM 46.0 °F 41.0 °F 37.9 °F 73% 29.96 in 10.0 mi SSW 10.4 mph - N/A   Mostly Cloudy
10:53 PM 46.0 °F 41.9 °F 37.9 °F 73% 29.96 in 10.0 mi SSW 8.1 mph - N/A   Mostly Cloudy
11:53 PM 39.9 °F 35.1 °F 36.0 °F 86% 29.96 in 10.0 mi SSE 6.9 mph - N/A   Partly Cloudy